Vertical_Velocity
3 -1 0 -2 -1 -1 1 -3 3 2 1 -3 -0 3 6 -3 -0 4 -1 2 -2 -1 -0 -3 -1 1 3 -3 0 2 -2 -3 0 0 2 -4 -2 -0 -3 -5 3 -0 -1 -1 -0
-1 -1 -1 -1 6 1 -1 -4 1 3 -5 -3 2 -1 4 -0 -2 -1 3 -1 1 2 -3 2 -3 0 -1 2 -2 2 -2 -3 -5 -2 3 4 3 2 -3 -3 -0 -3 -1 2 -2
2 1 -1 6 -3 4 3 3 -2 -0 1 -4 1 -0 3 -1 -1 2 3 6 3 1 2 -0 -0 1 -3 -3 -1 1 2 -4 0 -3 -2 4 -2 1 0 3 -4 -3 2 -1 5
5 2 -4 4 -6 5 1 2 0 -3 2 -2 2 1 -2 -6 -1 1 -1 2 4 3 0 3 -2 3 -1 6 -6 -0 1 -0 -3 -9 -6 -3 3 -3 3 3 -5 -2 1 3 -2
2 -1 -3 -2 3 1 -1 -3 -1 -0 2 -2 2 1 -1 0 17 -4 4 2 1 7 3 0 1 -1 -2 1 -8 3 1 -7 2 1 -1 -1 -1 -3 0 4 -1 -5 -5 1 1
2 2 4 -2 -1 5 2 -1 -0 -1 5 -0 -5 -2 -5 7 -4 5 6 3 -2 5 6 1 -1 -3 5 2 -7 0 -5 4 -5 6 3 2 1 -6 4 -0 -2 -5 -1 -3 -2
-0 -1 1 4 -9 5 5 0 -2 3 3 -2 -10 -8 -20 39 6 -3 6 9 -2 1 3 -2 2 -7 8 7 -4 3 -7 -1 11 1 4 -3 -2 -1 1 -1 4 -5 -3 -1 2
-5 4 -2 1 -3 1 4 -7 -4 -5 2 1 -8 -10 -12 25 -15 5 9 1 -4 6 4 -1 -1 1 -2 5 -2 -2 -5 -0 17 6 9 -15 6 7 2 2 -3 2 -3 -6 1
-5 2 -4 -6 1 -1 -2 -4 -3 -1 -0 -0 -5 -8 10 0 6 -11 -12 15 2 4 10 -2 -7 2 0 2 -4 -5 2 -1 1 -2 0 -16 5 18 7 -3 3 -3 1 -1 -9
2 -5 0 1 -8 -1 -2 -2 1 2 -5 -0 -7 -1 -9 -6 4 4 -1 11 8 -0 1 6 -11 -2 -6 -6 -8 17 -1 -4 -14 23 1 -5 -1 1 5 -5 -6 -4 -7 -1 -2
5 2 1 3 -3 -1 4 1 -0 -3 4 1 -1 -5 4 4 10 1 -9 1 1 5 -1 11 -14 -34 27 9 12 5 -11 -12 9 21 -11 2 -7 6 -1 -4 4 9 -11 -5 -3
-1 -0 1 -3 0 4 2 -3 3 -3 -3 0 -1 7 -2 -14 2 5 3 2 -0 4 5 -11 -50 33 1 7 4 -4 -5 -15 10 21 -10 30 -22 -6 8 -9 -0 0 6 -10 -2
-1 -1 -3 -1 -3 4 -0 -1 4 -0 -3 6 -0 11 9 -19 4 13 3 2 5 -3 11 2 4 1 -6 -5 1 1 -8 3 -6 22 -6 23 -58 15 3 -1 -8 -6 5 5 -14
-1 -1 -1 0 2 0 -6 0 -1 3 3 12 -8 -7 3 -12 3 15 -8 -6 0 4 17 -35 36 -0 7 -4 7 -8 20 7 9 3 -21 49 -76 -25 21 -3 -0 -3 -5 2 3
1 -2 -1 4 4 -7 -11 3 4 8 -10 -2 1 9 -3 0 1 13 -4 -4 7 3 -5 4 7 -1 -15 -2 27 -37 -3 -1 10 -2 15 -9 -17 -4 5 -4 8 3 -1 -9 -1
1 -0 2 -0 -7 1 -2 6 5 2 3 -2 -0 -5 -3 -1 -6 0 8 -5 10 2 -10 12 1 5 9 5 18 -10 8 17 5 11 -23 -16 24 -108 -5 7 5 6 5 1 -8
0 2 -1 1 -8 1 -4 3 3 -4 -3 -7 -6 3 6 1 3 -4 6 4 3 2 1 13 -2 -8 5 -4 18 10 11 -7 5 8 -64 60 22 -179 25 11 -3 10 9 11 7
4 3 1 -4 4 1 1 0 -0 8 1 -2 -0 4 18 6 -5 -9 -7 2 6 0 1 -4 5 2 14 -7 11 2 2 -14 -15 8 -11 12 -17 -165 29 -3 0 4 10 7 8
2 1 -0 -5 3 1 1 1 11 6 -4 2 -1 1 -1 -6 4 13 8 13 8 1 -1 -17 -23 5 -10 9 -7 25 -8 28 -16 -5 1 -0 -21 -62 15 3 9 4 8 8 -6
-0 -1 -5 0 0 -2 -2 4 13 2 -2 1 -2 3 1 -6 -5 -1 8 9 13 -2 -21 8 -38 -10 2 -8 18 -9 21 1 3 -11 -3 -42 -10 -96 12 27 14 0 -0 3 -4
1 -4 4 -3 1 -2 5 10 8 -4 2 2 -4 -2 1 -2 -4 -4 5 12 -2 -7 -10 2 -24 24 -3 2 6 10 -0 13 16 -4 -3 -26 -33 4 -14 21 5 10 7 10 4
-1 -4 1 -0 -1 2 7 -0 5 5 -12 5 4 3 3 -9 3 -2 5 3 3 2 -2 -10 -31 -17 5 9 5 9 2 -0 4 3 4 -3 -55 1 4 -8 -3 8 15 12 3
-3 -1 -3 -3 1 5 7 0 -2 7 -1 3 1 -1 -3 6 -12 1 -4 6 4 0 1 4 -28 -25 7 11 9 -2 7 6 -0 4 -13 7 -53 -10 2 7 -3 -10 1 -0 -3
3 -2 2 -3 5 0 -2 1 -0 0 5 2 -1 -5 7 2 -11 -3 5 6 12 2 -1 -8 -9 -15 -26 6 7 -1 -1 9 1 -17 18 -16 -9 -27 -2 -6 -0 -4 5 6 3
5 8 -1 3 2 -2 -4 4 3 4 1 -5 9 11 -9 -7 -7 -0 -7 4 2 11 -3 -9 -10 -18 -13 7 5 -9 -2 10 2 -2 -0 -17 -5 -11 -27 22 -2 -0 11 3 -7
1 9 -6 2 -1 -1 -4 14 2 1 -3 8 0 -5 -3 -7 -1 11 -25 -2 1 7 3 0 -9 -12 -27 5 5 -15 -17 19 13 3 8 -4 -15 22 -19 6 7 -1 8 5 11
-1 1 -6 7 7 -4 9 1 6 2 4 1 -3 -7 5 -0 -15 -5 -9 6 1 -8 10 -5 -1 8 -53 18 -3 -43 24 -5 5 12 12 -3 -11 5 -18 -4 -10 4 18 9 18
Height
5788 5792 5798 5800 5807 5811 5813 5817 5821 5822 5826 5833 5835 5837 5842 5843 5849 5852 5853 5857 5861 5863 5866 5869 5871 5874 5877 5878 5880 5881 5880 5879 5879 5882 5882 5880 5880 5880 5880 5878 5881 5881 5880 5880 5880
5780 5784 5787 5793 5794 5802 5806 5809 5812 5816 5820 5826 5829 5831 5833 5837 5843 5845 5848 5849 5854 5856 5860 5864 5865 5870 5870 5874 5876 5877 5877 5876 5875 5876 5879 5880 5880 5878 5878 5878 5877 5878 5877 5877 5877
5768 5774 5780 5784 5785 5791 5797 5800 5805 5808 5814 5818 5820 5824 5827 5831 5836 5839 5842 5843 5848 5850 5853 5857 5859 5862 5866 5867 5870 5873 5873 5874 5873 5873 5874 5876 5876 5877 5876 5874 5876 5875 5876 5877 5876
5756 5762 5768 5773 5777 5780 5786 5792 5794 5801 5806 5810 5814 5817 5820 5826 5831 5833 5835 5838 5840 5843 5846 5848 5852 5856 5859 5861 5863 5865 5867 5869 5870 5868 5870 5872 5874 5873 5874 5871 5868 5873 5873 5874 5874
5743 5750 5756 5761 5767 5769 5776 5781 5786 5790 5796 5801 5806 5809 5811 5817 5822 5824 5828 5830 5832 5836 5838 5840 5844 5848 5852 5853 5853 5860 5864 5862 5865 5865 5868 5869 5870 5871 5872 5871 5864 5865 5869 5869 5869
5730 5739 5742 5747 5753 5758 5764 5771 5776 5779 5784 5789 5796 5801 5805 5810 5810 5816 5820 5820 5824 5829 5831 5833 5835 5838 5843 5848 5848 5853 5856 5858 5861 5862 5864 5865 5865 5865 5871 5868 5863 5862 5864 5867 5865
5720 5723 5730 5733 5740 5747 5753 5758 5763 5768 5772 5778 5784 5789 5795 5804 5803 5807 5811 5812 5815 5819 5820 5822 5826 5829 5832 5840 5841 5846 5848 5850 5853 5858 5860 5858 5859 5862 5866 5863 5863 5857 5857 5860 5864
5710 5713 5718 5724 5729 5734 5741 5748 5753 5759 5764 5769 5774 5779 5784 5790 5791 5798 5800 5803 5805 5809 5811 5812 5815 5820 5823 5829 5832 5834 5835 5838 5846 5849 5854 5852 5852 5859 5859 5856 5858 5857 5851 5853 5857
5699 5702 5709 5714 5718 5723 5730 5736 5742 5748 5752 5758 5765 5770 5777 5778 5784 5785 5788 5794 5795 5797 5801 5802 5805 5811 5815 5818 5823 5821 5822 5827 5837 5841 5843 5844 5844 5853 5854 5850 5850 5853 5852 5846 5850
5692 5694 5699 5704 5709 5714 5720 5723 5731 5738 5742 5747 5754 5760 5763 5767 5773 5777 5777 5783 5787 5788 5790 5794 5796 5800 5806 5808 5809 5816 5818 5823 5826 5836 5832 5833 5832 5839 5844 5841 5840 5843 5846 5846 5845
5684 5686 5690 5694 5700 5704 5710 5714 5722 5727 5731 5736 5742 5747 5751 5756 5762 5767 5766 5769 5773 5777 5779 5782 5785 5793 5803 5807 5801 5802 5805 5808 5816 5820 5819 5822 5822 5826 5833 5835 5835 5835 5836 5839 5842
5678 5681 5684 5687 5692 5694 5700 5703 5709 5716 5722 5725 5729 5736 5737 5740 5750 5753 5759 5761 5762 5763 5767 5768 5774 5790 5792 5785 5788 5790 5794 5800 5804 5807 5805 5810 5809 5816 5818 5821 5826 5828 5829 5831 5835
5671 5675 5677 5680 5685 5688 5691 5696 5700 5706 5710 5713 5716 5722 5727 5727 5735 5738 5743 5748 5752 5753 5755 5755 5773 5776 5775 5775 5776 5780 5781 5790 5790 5794 5792 5792 5794 5803 5809 5810 5812 5820 5821 5821 5825
5663 5667 5670 5673 5678 5681 5684 5689 5692 5697 5700 5704 5706 5709 5713 5719 5720 5724 5727 5733 5738 5742 5742 5745 5759 5760 5763 5763 5767 5767 5778 5776 5777 5778 5775 5785 5778 5792 5802 5800 5803 5804 5812 5813 5814
5655 5658 5662 5665 5669 5673 5678 5680 5686 5689 5691 5694 5699 5700 5701 5707 5711 5713 5716 5719 5724 5726 5730 5745 5743 5746 5745 5756 5753 5751 5759 5759 5761 5759 5759 5766 5764 5774 5788 5788 5794 5796 5797 5803 5807
5647 5651 5655 5660 5663 5667 5671 5672 5678 5682 5681 5685 5687 5689 5694 5696 5700 5702 5704 5707 5711 5712 5717 5728 5729 5732 5739 5741 5739 5739 5746 5745 5746 5745 5741 5759 5753 5763 5776 5782 5787 5792 5791 5792 5794
5641 5645 5649 5653 5655 5660 5662 5665 5670 5671 5674 5676 5678 5683 5686 5688 5690 5692 5696 5699 5701 5702 5705 5709 5716 5718 5722 5723 5727 5727 5731 5726 5723 5724 5724 5748 5736 5750 5765 5769 5772 5778 5783 5784 5784
5635 5639 5643 5644 5648 5651 5655 5659 5661 5664 5667 5670 5674 5676 5680 5681 5683 5687 5689 5690 5692 5691 5693 5695 5704 5709 5711 5710 5713 5714 5715 5713 5709 5710 5718 5727 5714 5735 5754 5756 5759 5762 5767 5770 5773
5629 5633 5635 5637 5641 5644 5647 5650 5656 5659 5663 5665 5667 5669 5670 5672 5677 5681 5681 5682 5679 5677 5679 5682 5693 5696 5699 5695 5699 5700 5700 5706 5697 5699 5696 5702 5708 5719 5738 5740 5745 5747 5751 5754 5755
5622 5625 5627 5631 5635 5636 5639 5644 5650 5654 5657 5658 5659 5660 5661 5663 5666 5669 5670 5668 5666 5666 5669 5674 5681 5683 5685 5685 5692 5682 5688 5688 5686 5682 5680 5683 5690 5703 5732 5732 5734 5735 5737 5739 5739
5613 5617 5621 5623 5626 5628 5632 5639 5643 5645 5647 5650 5651 5651 5654 5655 5658 5660 5660 5658 5656 5656 5658 5660 5669 5676 5674 5675 5675 5675 5674 5672 5673 5673 5669 5669 5672 5698 5710 5714 5715 5718 5721 5725 5724
5605 5609 5612 5614 5618 5620 5625 5630 5633 5636 5635 5640 5642 5644 5645 5644 5647 5648 5650 5651 5651 5649 5649 5646 5652 5664 5665 5666 5666 5662 5665 5658 5658 5661 5660 5659 5659 5689 5688 5691 5693 5695 5703 5710 5709
5596 5600 5602 5605 5608 5613 5617 5619 5621 5625 5628 5629 5631 5633 5633 5634 5635 5639 5640 5641 5639 5639 5638 5638 5639 5646 5651 5653 5653 5652 5651 5649 5647 5647 5649 5647 5647 5681 5675 5677 5678 5677 5683 5691 5694
5587 5591 5595 5598 5601 5604 5606 5608 5611 5614 5616 5620 5623 5621 5620 5624 5623 5624 5627 5629 5630 5630 5628 5627 5630 5632 5637 5640 5635 5636 5638 5638 5636 5636 5639 5635 5642 5657 5666 5664 5665 5665 5667 5671 5677
5578 5583 5585 5589 5592 5593 5595 5599 5601 5604 5608 5609 5611 5612 5611 5608 5609 5610 5612 5616 5618 5618 5616 5614 5613 5614 5621 5624 5618 5615 5625 5630 5624 5627 5618 5630 5626 5636 5650 5655 5649 5651 5655 5657 5662
5569 5573 5577 5579 5581 5583 5586 5591 5593 5595 5595 5597 5599 5599 5597 5593 5598 5603 5601 5602 5603 5605 5604 5604 5601 5600 5604 5609 5605 5601 5612 5613 5612 5613 5609 5612 5610 5624 5627 5635 5632 5636 5641 5645 5648
5559 5562 5565 5571 5574 5576 5579 5580 5583 5582 5585 5586 5585 5585 5585 5586 5586 5585 5588 5590 5591 5592 5592 5589 5589 5589 5587 5595 5590 5586 5602 5593 5596 5599 5599 5594 5603 5610 5608 5619 5618 5618 5620 5626 5628